Back to catalog

STARLINK-32153

AliveCommunicationsVLEO
NORAD 60330·PAYLOAD·🇺🇸 United States

Launched Aug 2, 2024 from Cape Canaveral Space Force Station

Loading…

Next Passes (next 24 hours)

TLE

FreshSource: CelesTrak SupGP

Epoch: Sep 14, 2026, 20:45 UTC

1 60330C 24136B   26257.86506944  .00035996  00000+0  10638-2 0  2570
2 60330  53.1576 275.7320 0001173  91.7583 339.9715 15.34363582    10

Track STARLINK-32153 in real time with AllMySat

Download on the App Store